Regional Weather Roundup
Issued by NWS

Home | Current Version | Previous Version | Graphics & Text | Print | Product List | Glossary On
Versions: 1 2 3 4 5 6 7 8 9 10 11 12 13 14 15 16 17 18 19 20 21 22 23 24 25 26 27 28 29 30 31 32 33 34 35 36 37 38 39 40 41 42 43 44 45 46 47 48 49 50
000
ASUS43 KFSD 300510
RWRSD

WEATHER ROUNDUP FOR SOUTH DAKOTA
NATIONAL WEATHER SERVICE SIOUX FALLS SD
1200 AM CDT TUE MAY 30 2017

NOTE: "FAIR" INDICATES FEW OR NO CLOUDS BELOW 12,000 FEET WITH NO
SIGNIFICANT WEATHER AND/OR OBSTRUCTIONS TO VISIBILITY.


SDZ001>005-009-010-012>017-300600-
NORTHWEST AND NORTH CENTRAL SOUTH DAKOTA

CITY           SKY/WX    TMP DP  RH WIND       PRES   REMARKS
BUFFALO          N/A     50  31  48 NW7       30.04S
FAITH            N/A     47  32  56 W5        30.07S
MOBRIDGE       CLEAR     45  35  68 NW7       30.00S
$$

SDZ012>016-024>037-041>051-057-063-072>074-300600-
SOUTHWEST AND SOUTH CENTRAL SOUTH DAKOTA

CITY           SKY/WX    TMP DP  RH WIND       PRES   REMARKS
RAPID CTY ARPT CLEAR     47  29  49 NW9       30.12S
PIERRE         PTCLDY    50  35  56 SW6       30.04R
CUSTER         CLEAR     45  23  42 NW6       30.20S
ELLSWORTH AFB  CLEAR     52  29  42 NW7       30.12S
PHILIP         CLEAR     44  34  67 W10       30.08S
PINE RIDGE     CLEAR     45  40  82 W3        30.14S
SPEARFISH      FAIR      45  32  61 SW6       30.15S
WINNER         FAIR      48  38  68 SW6       30.06S
$$

SDZ004>011-016>023-039-040-300600-
NORTHEAST SOUTH DAKOTA

CITY           SKY/WX    TMP DP  RH WIND       PRES   REMARKS
ABERDEEN       CLOUDY    51  38  60 NW5       29.98S
WATERTOWN      CLOUDY    52  43  71 W6        29.96F
BROOKINGS      PTCLDY    48  43  82 W6        29.98F
SISSETON         N/A     54  43  66 NW9       29.93S
$$

SDZ017-020-022-023-036>040-048>070-300600-
SOUTHEAST SOUTH DAKOTA

CITY           SKY/WX    TMP DP  RH WIND       PRES   REMARKS
SIOUX FALLS    CLEAR     50  44  80 SW5       29.99F
HURON          CLOUDY    47  39  74 W7        30.00S
CHAMBERLAIN    CLEAR     53  40  61 CALM      30.04S
MITCHELL       MOCLDY    52  44  74 SW5       30.01F
YANKTON        PTCLDY    53  44  71 N6        30.02S
$$

ABBREVIATIONS USED IN REMARKS
   TC - TEMPERATURE IN CELSIUS
  WCI - WIND CHILL INDEX
   HX - HEAT INDEX
  VSB - VISIBILITY





USA.gov is the U.S. government's official web portal to all federal, state and local government web resources and services.